Weather in Dvuluchnoye

Russia / Belgorod Oblast     50°02′11″N   38°00′03″E
temp.,
°C
wind,
m/s
gust,
m/s
humid.,
%
clouds,
%
prec.,
mm/h
press.,
hPa
HPBL,
m
21 april, wed
wed2100:00+9s5129471 1.8 1001434
03:00+9ssw71189100 1.9 1002909
06:00+6w61191100 0.4 1006752
09:00+9w587995 0.4 1010618
12:00+10wsw5982100 0.3 1012748
15:00+13wsw7105389 0.6 10132067
18:00+12sw696197 0.2 1014883
21:00+8ssw33785 0.2 101745
22 april, thu
thu2200:00+7ssw228155 0.0 101725
03:00+7sw348477 0.1 101863
06:00+7sw238396 0.1 1019104
09:00+12sw34665 0.1 1021556
12:00+15wsw45475 0.0 10201810
15:00+17wsw353971 0.0 10202394
18:00+15s365694 0.0 1020204
21:00+11s346178 0.0 102151
23 april, fri
fri2300:00+10ssw336932 0.0 102131
03:00+10s2372100 0.0 102047
06:00+10s3579100 0.1 1021137
09:00+13ssw466897 0.1 1020535
12:00+16ssw675083 0.8 10192006
15:00+16s5750100 0.8 10171073
18:00+15s595676 0.0 1016559
21:00+11sse5126779 0.0 1015251
24 april, sat
sat2400:00+11ssw5126898 0.1 1015435
03:00+9ssw51178100 0.1 1013451
06:00+9wsw5987100 0.3 1013648
09:00+5nw61090100 2.4 1015688
12:00+9w785898 0.1 10151698
15:00+12wnw51037100 0.2 10152870
18:00+11w574621 0.0 10151033
21:00+6w267485 0.3 1017205
25 april, sun
sun2500:00+5wsw488199 0.1 1017408
03:00+4sw379295 1.1 1017368
06:00+3wsw36915 0.3 1017194
09:00+7w57595 0.3 10171253
12:00+10wsw6744100 0.2 10172426
15:00+11w793698 0.2 10162512
18:00+10w474421 0.0 10161647
21:00+6w226587 0.0 101813